Hourly Data Report for November 12, 2019

OTTAWA INTL A
ONTARIO
Current Station Operator: NAVCAN

45°19'00.000" N
75°40'00.000" W
114.90 m
6106001
71628
YOW

Download Data

Hourly Data (November 2019)
Hourly Data Report for November 12, 2019
TIME Temp Definition
°C
Dew Point Definition
°C
Rel Hum Definition
%
Wind Dir Definition
10's deg

Wind Spd Definition
km/h
Visibility Definition
km
Stn Press Definition
kPa
Hmdx Definition


Wind Chill Definition


Weather Definition


00:00 -7.4 -8.9 89 36 18 1.6 100.40   -14 Snow
01:00 -7.5 -9.0 89 1 18 1.6 100.27   -14 Snow
02:00 -7.6 -9.3 88 36 19 2.4 100.24   -15 Snow
03:00 -7.8 -9.4 88 34 22 2.4 100.13   -15 Snow
04:00 -8.0 -9.7 88 34 21 2.4 100.10   -16 Snow
05:00 -8.2 -10.1 86 34 21 3.2 100.09   -16 Snow
06:00 -8.2 -10.2 86 32 21 9.7 100.07   -16 Snow
07:00 -8.5 -11.0 82 31 23 12.9 100.08   -17 Snow
08:00 -8.6 -11.7 78 31 20 24.1 100.14   -16 LegendNANA
09:00 -8.2 -12.0 74 31 27 24.1 100.16   -17 LegendNANA
10:00 -8.5 -12.6 72 29 26 24.1 100.21   -17 Mostly Cloudy
11:00 -8.7 -11.9 78 28 25 4.8 100.25   -17 Snow
12:00 -8.6 -13.0 71 27 32 24.1 100.23   -18 LegendNANA
13:00 -8.1 -13.0 68 28 28 24.1 100.20   -17 Mainly Clear
14:00 -8.0 -13.6 64 26 29 24.1 100.25   -17 LegendNANA
15:00 -9.0 -14.7 64 28 36 24.1 100.34   -19 LegendNANA
16:00 -9.5 -15.7 61 28 33 24.1 100.40   -19 Mostly Cloudy
17:00 -10.3 -16.3 62 28 20 24.1 100.44   -18 LegendNANA
18:00 -10.2 -16.0 63 29 25 24.1 100.47   -19 LegendNANA
19:00 -10.7 -15.7 67 29 26 24.1 100.53   -20 Mainly Clear
20:00 -11.4 -16.6 66 28 18 24.1 100.57   -19 LegendNANA
21:00 -11.6 -16.3 68 29 28 24.1 100.62   -21 LegendNANA
22:00 -11.8 -16.0 71 29 26 24.1 100.63   -21 Mainly Clear
23:00 -12.7 -16.9 71 28 21 24.1 100.63   -21 LegendNANA

Notes on Data Quality.

Legend

  • E = Estimated
  • M = Missing
  • NA = Not Available*
  • [empty] = Indicates an unobserved value
Date modified: